Year,Month,Day,Hour,Minute,Value (Times are PST for temperature in C)
2016,10,21,00,01,10.40
2016,10,21,00,02,10.40
2016,10,21,00,03,10.40
2016,10,21,00,04,10.40
2016,10,21,00,06,10.40
2016,10,21,00,07,10.40
2016,10,21,00,09,10.40
2016,10,21,00,11,10.60
2016,10,21,00,12,10.60
2016,10,21,00,13,10.60
2016,10,21,00,14,10.60
2016,10,21,00,16,10.60
2016,10,21,00,17,10.60
2016,10,21,00,18,10.60
2016,10,21,00,19,10.40
2016,10,21,00,21,10.40
2016,10,21,00,22,10.40
2016,10,21,00,23,10.40
2016,10,21,00,24,10.40
2016,10,21,00,26,10.40
2016,10,21,00,27,10.40
2016,10,21,00,28,10.40
2016,10,21,00,29,10.40
2016,10,21,00,31,10.40
2016,10,21,00,32,10.30
2016,10,21,00,33,10.30
2016,10,21,00,34,10.20
2016,10,21,00,36,10.20
2016,10,21,00,37,10.10
2016,10,21,00,38,10.10
2016,10,21,00,39,10.10
2016,10,21,00,41,9.90
2016,10,21,00,42,9.90
2016,10,21,00,43,9.90
2016,10,21,00,44,9.90
2016,10,21,00,45,9.90
2016,10,21,00,46,9.90
2016,10,21,00,47,9.90
2016,10,21,00,48,9.90
2016,10,21,00,49,9.90
2016,10,21,00,50,9.90
2016,10,21,00,51,9.90
2016,10,21,00,52,10.10
2016,10,21,00,53,9.90
2016,10,21,00,54,9.90
2016,10,21,00,55,9.90
2016,10,21,00,56,9.90
2016,10,21,00,57,9.90
2016,10,21,00,58,9.90
2016,10,21,00,59,9.90
2016,10,21,01,01,9.90
2016,10,21,01,02,9.90
2016,10,21,01,03,9.90
2016,10,21,01,04,9.90
2016,10,21,01,06,9.90
2016,10,21,01,07,9.90
2016,10,21,01,08,9.90
2016,10,21,01,09,9.90
2016,10,21,01,10,9.90
2016,10,21,01,11,9.90
2016,10,21,01,12,9.90
2016,10,21,01,13,9.90
2016,10,21,01,14,9.90
2016,10,21,01,15,9.90
2016,10,21,01,16,9.90
2016,10,21,01,17,9.90
2016,10,21,01,18,9.90
2016,10,21,01,19,9.90
2016,10,21,01,20,9.90
2016,10,21,01,21,9.90
2016,10,21,01,22,9.90
2016,10,21,01,23,10.10
2016,10,21,01,24,10.10
2016,10,21,01,25,10.10
2016,10,21,01,26,10.10
2016,10,21,01,27,10.10
2016,10,21,01,28,10.10
2016,10,21,01,29,10.10
2016,10,21,01,30,10.10
2016,10,21,01,31,10.10
2016,10,21,01,32,10.10
2016,10,21,01,33,10.10
2016,10,21,01,34,10.20
2016,10,21,01,35,10.20
2016,10,21,01,36,10.20
2016,10,21,01,37,10.20
2016,10,21,01,38,10.20
2016,10,21,01,39,10.30
2016,10,21,01,40,10.30
2016,10,21,01,41,10.30
2016,10,21,01,42,10.30
2016,10,21,01,43,10.40
2016,10,21,01,44,10.40
2016,10,21,01,45,10.40
2016,10,21,01,46,10.40
2016,10,21,01,47,10.40
2016,10,21,01,48,10.40
2016,10,21,01,49,10.40
2016,10,21,01,50,10.40
2016,10,21,01,51,10.40
2016,10,21,01,52,10.40
2016,10,21,01,53,10.40
2016,10,21,01,54,10.40
2016,10,21,01,55,10.40
2016,10,21,01,56,10.40
2016,10,21,01,57,10.40
2016,10,21,01,58,10.40
2016,10,21,01,59,10.40
2016,10,21,02,00,10.40
2016,10,21,02,01,10.40
2016,10,21,02,02,10.40
2016,10,21,02,03,10.40
2016,10,21,02,04,10.40
2016,10,21,02,05,10.40
2016,10,21,02,06,10.40
2016,10,21,02,07,10.40
2016,10,21,02,08,10.40
2016,10,21,02,09,10.40
2016,10,21,02,11,10.60
2016,10,21,02,12,10.60
2016,10,21,02,13,10.60
2016,10,21,02,14,10.60
2016,10,21,02,16,10.60
2016,10,21,02,17,10.60
2016,10,21,02,18,10.60
2016,10,21,02,19,10.60
2016,10,21,02,21,10.70
2016,10,21,02,22,10.70
2016,10,21,02,23,10.70
2016,10,21,02,24,10.80
2016,10,21,02,26,10.90
2016,10,21,02,27,10.90
2016,10,21,02,28,10.90
2016,10,21,02,29,10.90
2016,10,21,02,31,10.90
2016,10,21,02,32,11.10
2016,10,21,02,33,11.10
2016,10,21,02,34,11.10
2016,10,21,02,36,11.10
2016,10,21,02,37,11.10
2016,10,21,02,38,10.90
2016,10,21,02,39,10.90
2016,10,21,02,41,10.90
2016,10,21,02,42,10.90
2016,10,21,02,43,10.90
2016,10,21,02,44,10.90
2016,10,21,02,46,10.90
2016,10,21,02,47,10.90
2016,10,21,02,48,11.10
2016,10,21,02,49,11.10
2016,10,21,02,51,11.10
2016,10,21,02,52,11.10
2016,10,21,02,53,11.10
2016,10,21,02,54,11.10
2016,10,21,02,56,10.90
2016,10,21,02,57,10.90
2016,10,21,02,58,10.90
2016,10,21,02,59,10.90
2016,10,21,03,01,10.90
2016,10,21,03,02,10.90
2016,10,21,03,03,10.90
2016,10,21,03,04,10.90
2016,10,21,03,06,10.90
2016,10,21,03,07,10.90
2016,10,21,03,08,10.90
2016,10,21,03,28,10.90
2016,10,21,03,29,10.90
2016,10,21,03,30,10.90
2016,10,21,03,31,10.90
2016,10,21,03,32,10.90
2016,10,21,03,33,10.90
2016,10,21,03,34,10.90
2016,10,21,03,36,10.90
2016,10,21,03,37,10.90
2016,10,21,03,38,10.80
2016,10,21,03,39,10.80
2016,10,21,03,40,10.80
2016,10,21,03,41,10.80
2016,10,21,03,42,10.80
2016,10,21,03,43,10.80
2016,10,21,03,44,10.80
2016,10,21,03,45,10.80
2016,10,21,03,46,10.80
2016,10,21,03,47,10.80
2016,10,21,03,48,10.80
2016,10,21,03,49,10.80
2016,10,21,03,50,10.80
2016,10,21,03,51,10.80
2016,10,21,03,52,10.80
2016,10,21,03,53,10.80
2016,10,21,03,54,10.80
2016,10,21,03,55,10.80
2016,10,21,03,56,10.80
2016,10,21,03,57,10.80
2016,10,21,03,58,10.80
2016,10,21,03,59,10.80
2016,10,21,04,00,10.80
2016,10,21,04,01,10.80
2016,10,21,04,02,10.80
2016,10,21,04,03,10.80
2016,10,21,04,04,10.80
2016,10,21,04,05,10.80
2016,10,21,04,06,10.80
2016,10,21,04,07,10.80
2016,10,21,04,08,10.80
2016,10,21,04,09,10.80
2016,10,21,04,10,10.80
2016,10,21,04,11,10.80
2016,10,21,04,12,10.80
2016,10,21,04,13,10.80
2016,10,21,04,14,10.80
2016,10,21,04,15,10.80
2016,10,21,04,16,10.80
2016,10,21,04,17,10.80
2016,10,21,04,18,10.80
2016,10,21,04,19,10.80
2016,10,21,04,20,10.80
2016,10,21,04,21,10.80
2016,10,21,04,22,10.80
2016,10,21,04,23,10.80
2016,10,21,04,24,10.80
2016,10,21,04,25,10.80
2016,10,21,04,26,10.80
2016,10,21,04,27,10.80
2016,10,21,04,28,10.80
2016,10,21,04,29,10.80
2016,10,21,04,30,10.80
2016,10,21,04,31,10.80
2016,10,21,04,32,10.80
2016,10,21,04,33,10.80
2016,10,21,04,34,10.80
2016,10,21,04,35,10.80
2016,10,21,04,36,10.80
2016,10,21,04,38,10.80
2016,10,21,04,39,10.80
2016,10,21,04,41,10.80
2016,10,21,04,42,10.80
2016,10,21,04,43,10.80
2016,10,21,04,44,10.80
2016,10,21,04,46,10.80
2016,10,21,04,47,10.80
2016,10,21,04,48,10.80
2016,10,21,04,49,10.80
2016,10,21,04,51,10.80
2016,10,21,04,52,10.80
2016,10,21,04,53,10.70
2016,10,21,04,54,10.70
2016,10,21,04,56,10.70
2016,10,21,04,57,10.70
2016,10,21,04,58,10.70
2016,10,21,04,59,10.70
2016,10,21,05,01,10.70
2016,10,21,05,02,10.70
2016,10,21,05,03,10.70
2016,10,21,05,04,10.70
2016,10,21,05,06,10.70
2016,10,21,05,07,10.70
2016,10,21,05,08,10.70
2016,10,21,05,09,10.70
2016,10,21,05,11,10.70
2016,10,21,05,12,10.70
2016,10,21,05,13,10.70
2016,10,21,05,14,10.70
2016,10,21,05,16,10.70
2016,10,21,05,17,10.70
2016,10,21,05,18,10.70
2016,10,21,05,19,10.70
2016,10,21,05,21,10.70
2016,10,21,05,22,10.70
2016,10,21,05,23,10.70
2016,10,21,05,24,10.70
2016,10,21,05,26,10.70
2016,10,21,05,27,10.70
2016,10,21,05,28,10.70
2016,10,21,05,29,10.70
2016,10,21,05,31,10.70
2016,10,21,05,32,10.70
2016,10,21,05,33,10.70
2016,10,21,05,34,10.70
2016,10,21,05,36,10.70
2016,10,21,05,37,10.70
2016,10,21,05,38,10.70
2016,10,21,05,39,10.70
2016,10,21,05,41,10.70
2016,10,21,05,42,10.70
2016,10,21,05,43,10.70
2016,10,21,05,44,10.70
2016,10,21,05,46,10.70
2016,10,21,05,47,10.70
2016,10,21,05,48,10.70
2016,10,21,05,49,10.70
2016,10,21,05,51,10.70
2016,10,21,05,52,10.70
2016,10,21,05,53,10.70
2016,10,21,05,54,10.70
2016,10,21,05,55,10.70
2016,10,21,05,56,10.70
2016,10,21,05,57,10.70
2016,10,21,05,58,10.70
2016,10,21,05,59,10.70
2016,10,21,06,01,10.70
2016,10,21,06,02,10.60
2016,10,21,06,03,10.60
2016,10,21,06,04,10.60
2016,10,21,06,06,10.60
2016,10,21,06,07,10.60
2016,10,21,06,08,10.60
2016,10,21,06,09,10.60
2016,10,21,06,10,10.60
2016,10,21,06,11,10.60
2016,10,21,06,12,10.60
2016,10,21,06,13,10.60
2016,10,21,06,14,10.60
2016,10,21,06,15,10.60
2016,10,21,06,16,10.60
2016,10,21,06,17,10.60
2016,10,21,06,18,10.60
2016,10,21,06,28,10.40
2016,10,21,06,29,10.40
2016,10,21,06,30,10.40
2016,10,21,06,31,10.40
2016,10,21,06,32,10.40
2016,10,21,06,33,10.40
2016,10,21,06,34,10.40
2016,10,21,06,36,10.40
2016,10,21,06,37,10.40
2016,10,21,06,38,10.40
2016,10,21,06,39,10.40
2016,10,21,06,40,10.40
2016,10,21,06,41,10.30
2016,10,21,06,42,10.30
2016,10,21,06,43,10.30
2016,10,21,06,44,10.30
2016,10,21,06,45,10.30
2016,10,21,06,46,10.30
2016,10,21,06,47,10.20
2016,10,21,06,48,10.20
2016,10,21,06,49,10.10
2016,10,21,06,50,10.10
2016,10,21,06,51,10.10
2016,10,21,06,52,10.10
2016,10,21,06,53,10.10
2016,10,21,06,54,10.10
2016,10,21,06,55,10.10
2016,10,21,06,56,10.10
2016,10,21,06,57,10.10
2016,10,21,06,58,10.10
2016,10,21,06,59,10.10
2016,10,21,07,00,9.90
2016,10,21,07,01,9.90
2016,10,21,07,02,9.90
2016,10,21,07,03,9.90
2016,10,21,07,04,9.90
2016,10,21,07,05,9.90
2016,10,21,07,06,9.90
2016,10,21,07,07,9.90
2016,10,21,07,08,9.90
2016,10,21,07,09,9.90
2016,10,21,07,10,9.90
2016,10,21,07,11,9.90
2016,10,21,07,12,9.90
2016,10,21,07,13,9.90
2016,10,21,07,14,9.90
2016,10,21,07,15,9.90
2016,10,21,07,16,9.90
2016,10,21,07,17,9.90
2016,10,21,07,18,9.90
2016,10,21,07,19,9.90
2016,10,21,07,20,9.90
2016,10,21,07,21,9.90
2016,10,21,07,22,9.90
2016,10,21,07,23,9.90
2016,10,21,07,24,9.90
2016,10,21,07,25,9.80
2016,10,21,07,26,9.80
2016,10,21,07,27,9.80
2016,10,21,07,28,9.70
2016,10,21,07,29,9.70
2016,10,21,07,30,9.70
2016,10,21,07,31,9.70
2016,10,21,07,32,9.70
2016,10,21,07,33,9.70
2016,10,21,07,34,9.60
2016,10,21,07,35,9.60
2016,10,21,07,37,9.60
2016,10,21,07,38,9.60
2016,10,21,07,39,9.60
2016,10,21,07,40,9.60
2016,10,21,07,41,9.60
2016,10,21,07,42,9.60
2016,10,21,07,44,9.70
2016,10,21,07,46,9.70
2016,10,21,07,47,9.70
2016,10,21,07,48,9.70
2016,10,21,07,49,9.70
2016,10,21,07,51,9.70
2016,10,21,07,53,9.70
2016,10,21,07,54,9.70
2016,10,21,07,56,9.70
2016,10,21,07,57,9.70
2016,10,21,07,58,9.70
2016,10,21,07,59,9.70
2016,10,21,08,01,9.70
2016,10,21,08,02,9.70
2016,10,21,08,03,9.70
2016,10,21,08,04,9.70
2016,10,21,08,06,9.70
2016,10,21,08,07,9.70
2016,10,21,08,08,9.70
2016,10,21,08,09,9.70
2016,10,21,08,11,9.70
2016,10,21,08,12,9.70
2016,10,21,08,13,9.70
2016,10,21,08,14,9.70
2016,10,21,08,16,9.70
2016,10,21,08,17,9.70
2016,10,21,08,18,9.70
2016,10,21,08,19,9.70
2016,10,21,08,21,9.70
2016,10,21,08,22,9.70
2016,10,21,08,23,9.70
2016,10,21,08,24,9.70
2016,10,21,08,26,9.70
2016,10,21,08,27,9.70
2016,10,21,08,28,9.70
2016,10,21,08,29,9.70
2016,10,21,08,31,9.70
2016,10,21,08,32,9.70
2016,10,21,08,33,9.70
2016,10,21,08,34,9.70
2016,10,21,08,36,9.70
2016,10,21,08,37,9.70
2016,10,21,08,38,9.80
2016,10,21,08,39,9.80
2016,10,21,08,41,9.80
2016,10,21,08,42,9.80
2016,10,21,08,43,9.70
2016,10,21,08,44,9.70
2016,10,21,08,46,9.70
2016,10,21,08,47,9.70
2016,10,21,08,48,9.70
2016,10,21,08,49,9.70
2016,10,21,08,51,9.70
2016,10,21,08,52,9.70
2016,10,21,08,53,9.70
2016,10,21,08,54,9.70
2016,10,21,08,55,9.70
2016,10,21,08,56,9.70
2016,10,21,08,57,9.70
2016,10,21,08,58,9.70
2016,10,21,08,59,9.70
2016,10,21,09,00,9.70
2016,10,21,09,01,9.70
2016,10,21,09,02,9.70
2016,10,21,09,03,9.70
2016,10,21,09,04,9.70
2016,10,21,09,06,9.70
2016,10,21,09,07,9.70
2016,10,21,09,08,9.70
2016,10,21,09,09,9.70
2016,10,21,09,10,9.70
2016,10,21,09,11,9.70
2016,10,21,09,12,9.70
2016,10,21,09,13,9.70
2016,10,21,09,14,9.70
2016,10,21,09,15,9.70
2016,10,21,09,16,9.70
2016,10,21,09,17,9.70
2016,10,21,09,18,9.70
2016,10,21,09,28,9.80
2016,10,21,09,29,9.80
2016,10,21,09,30,9.80
2016,10,21,09,31,9.80
2016,10,21,09,32,9.80
2016,10,21,09,33,9.90
2016,10,21,09,34,9.90
2016,10,21,09,35,9.90
2016,10,21,09,36,9.90
2016,10,21,09,37,9.90
2016,10,21,09,38,9.90
2016,10,21,09,39,9.90
2016,10,21,09,40,9.90
2016,10,21,09,41,9.90
2016,10,21,09,43,10.10
2016,10,21,09,44,10.10
2016,10,21,09,45,9.90
2016,10,21,09,46,9.90
2016,10,21,09,47,9.90
2016,10,21,09,48,9.90
2016,10,21,09,49,9.90
2016,10,21,09,50,9.90
2016,10,21,09,51,9.90
2016,10,21,09,52,9.90
2016,10,21,09,53,10.10
2016,10,21,09,54,10.10
2016,10,21,09,55,10.10
2016,10,21,09,56,10.10
2016,10,21,09,57,10.10
2016,10,21,09,58,10.10
2016,10,21,09,59,10.10
2016,10,21,10,00,10.10
2016,10,21,10,01,10.10
2016,10,21,10,02,10.10
2016,10,21,10,03,10.10
2016,10,21,10,04,10.20
2016,10,21,10,05,10.20
2016,10,21,10,06,10.20
2016,10,21,10,07,10.30
2016,10,21,10,08,10.30
2016,10,21,10,09,10.30
2016,10,21,10,10,10.30
2016,10,21,10,11,10.40
2016,10,21,10,12,10.40
2016,10,21,10,13,10.40
2016,10,21,10,14,10.40
2016,10,21,10,15,10.40
2016,10,21,10,16,10.40
2016,10,21,10,17,10.40
2016,10,21,10,18,10.40
2016,10,21,10,19,10.40
2016,10,21,10,20,10.40
2016,10,21,10,21,10.40
2016,10,21,10,22,10.40
2016,10,21,10,23,10.60
2016,10,21,10,24,10.60
2016,10,21,10,25,10.60
2016,10,21,10,26,10.60
2016,10,21,10,27,10.60
2016,10,21,10,28,10.60
2016,10,21,10,29,10.60
2016,10,21,10,30,10.60
2016,10,21,10,31,10.70
2016,10,21,10,32,10.70
2016,10,21,10,33,10.80
2016,10,21,10,34,10.80
2016,10,21,10,35,10.80
2016,10,21,10,36,10.80
2016,10,21,10,37,10.90
2016,10,21,10,38,10.90
2016,10,21,10,39,10.90
2016,10,21,10,41,10.90
2016,10,21,10,42,10.90
2016,10,21,10,43,10.90
2016,10,21,10,46,10.90
2016,10,21,10,47,10.90
2016,10,21,10,48,10.90
2016,10,21,10,49,10.90
2016,10,21,10,51,10.90
2016,10,21,10,52,11.10
2016,10,21,10,53,11.10
2016,10,21,10,56,11.10
2016,10,21,10,57,11.10
2016,10,21,10,58,11.20
2016,10,21,10,59,11.20
2016,10,21,11,01,11.20
2016,10,21,11,02,11.20
2016,10,21,11,03,11.20
2016,10,21,11,04,11.20
2016,10,21,11,06,11.20
2016,10,21,11,07,11.20
2016,10,21,11,08,11.20
2016,10,21,11,09,11.20
2016,10,21,11,11,11.20
2016,10,21,11,12,11.10
2016,10,21,11,13,11.10
2016,10,21,11,14,11.10
2016,10,21,11,16,11.10
2016,10,21,11,17,11.10
2016,10,21,11,18,11.10
2016,10,21,11,19,11.10
2016,10,21,11,20,11.10
2016,10,21,11,21,11.10
2016,10,21,11,22,11.10
2016,10,21,11,23,11.10
2016,10,21,11,24,11.10
2016,10,21,11,26,11.20
2016,10,21,11,27,11.20
2016,10,21,11,28,11.20
2016,10,21,11,29,11.20
2016,10,21,11,31,11.30
2016,10,21,11,32,11.30
2016,10,21,11,33,11.30
2016,10,21,11,34,11.30
2016,10,21,11,36,11.30
2016,10,21,11,37,11.30
2016,10,21,11,38,11.30
2016,10,21,11,39,11.30
2016,10,21,11,41,11.30
2016,10,21,11,42,11.30
2016,10,21,11,43,11.30
2016,10,21,11,44,11.30
2016,10,21,11,46,11.30
2016,10,21,11,47,11.30
2016,10,21,11,48,11.30
2016,10,21,11,49,11.30
2016,10,21,11,51,11.30
2016,10,21,11,52,11.30
2016,10,21,11,53,11.30
2016,10,21,11,54,11.30
2016,10,21,11,56,11.30
2016,10,21,11,57,11.30
2016,10,21,11,58,11.30
2016,10,21,11,59,11.40
2016,10,21,12,00,11.40
2016,10,21,12,01,11.40
2016,10,21,12,02,11.40
2016,10,21,12,03,11.40
2016,10,21,12,04,11.40
2016,10,21,12,06,11.40
2016,10,21,12,07,11.40
2016,10,21,12,08,11.40
2016,10,21,12,09,11.40
2016,10,21,12,10,11.40
2016,10,21,12,11,11.40
2016,10,21,12,12,11.40
2016,10,21,12,13,11.40
2016,10,21,12,14,11.40
2016,10,21,12,15,11.40
2016,10,21,12,16,11.40
2016,10,21,12,17,11.40
2016,10,21,12,18,11.40
2016,10,21,12,19,11.40
2016,10,21,12,20,11.40
2016,10,21,12,21,11.40
2016,10,21,12,22,11.40
2016,10,21,12,23,11.40
2016,10,21,12,24,11.60
2016,10,21,12,25,11.60
2016,10,21,12,26,11.60
2016,10,21,12,27,11.60
2016,10,21,12,28,11.60
2016,10,21,12,29,11.70
2016,10,21,12,30,11.70
2016,10,21,12,31,11.80
2016,10,21,12,32,11.80
2016,10,21,12,33,11.80
2016,10,21,12,34,11.80
2016,10,21,12,35,11.80
2016,10,21,12,36,11.80
2016,10,21,12,37,11.80
2016,10,21,12,38,11.80
2016,10,21,12,39,11.80
2016,10,21,12,40,11.80
2016,10,21,12,41,11.80
2016,10,21,12,42,11.80
2016,10,21,12,43,11.80
2016,10,21,12,44,11.80
2016,10,21,12,45,11.80
2016,10,21,12,46,11.80
2016,10,21,12,47,11.90
2016,10,21,12,48,11.90
2016,10,21,12,49,11.90
2016,10,21,12,50,11.90
2016,10,21,12,51,11.90
2016,10,21,12,52,11.90
2016,10,21,12,53,11.90
2016,10,21,12,54,12.00
2016,10,21,12,55,12.00
2016,10,21,12,56,12.00
2016,10,21,12,57,12.00
2016,10,21,12,58,12.10
2016,10,21,12,59,12.10
2016,10,21,13,00,12.20
2016,10,21,13,01,12.20
2016,10,21,13,02,12.30
2016,10,21,13,03,12.30
2016,10,21,13,04,12.30
2016,10,21,13,05,12.30
2016,10,21,13,06,12.30
2016,10,21,13,07,12.30
2016,10,21,13,08,12.30
2016,10,21,13,09,12.30
2016,10,21,13,10,12.30
2016,10,21,13,11,12.30
2016,10,21,13,12,12.30
2016,10,21,13,13,12.30
2016,10,21,13,14,12.30
2016,10,21,13,15,12.30
2016,10,21,13,16,12.40
2016,10,21,13,17,12.40
2016,10,21,13,18,12.40
2016,10,21,13,19,12.40
2016,10,21,13,20,12.40
2016,10,21,13,21,12.40
2016,10,21,13,22,12.40
2016,10,21,13,23,12.30
2016,10,21,13,24,12.30
2016,10,21,13,25,12.40
2016,10,21,13,26,12.40
2016,10,21,13,27,12.40
2016,10,21,13,28,12.40
2016,10,21,13,29,12.40
2016,10,21,13,31,12.40
2016,10,21,13,32,12.40
2016,10,21,13,33,12.40
2016,10,21,13,34,12.40
2016,10,21,13,36,12.30
2016,10,21,13,37,12.30
2016,10,21,13,38,12.30
2016,10,21,13,39,12.30
2016,10,21,13,41,12.30
2016,10,21,13,42,12.20
2016,10,21,13,43,12.20
2016,10,21,13,44,12.20
2016,10,21,13,46,12.10
2016,10,21,13,47,12.10
2016,10,21,13,48,12.10
2016,10,21,13,49,12.10
2016,10,21,13,51,12.00
2016,10,21,13,52,12.00
2016,10,21,13,53,12.00
2016,10,21,13,54,12.00
2016,10,21,13,56,12.00
2016,10,21,13,57,12.00
2016,10,21,13,58,12.00
2016,10,21,13,59,12.00
2016,10,21,14,01,12.00
2016,10,21,14,02,12.00
2016,10,21,14,03,12.00
2016,10,21,14,04,12.00
2016,10,21,14,06,11.90
2016,10,21,14,07,11.90
2016,10,21,14,08,11.90
2016,10,21,14,09,11.90
2016,10,21,14,11,12.00
2016,10,21,14,12,12.00
2016,10,21,14,13,12.00
2016,10,21,14,14,12.00
2016,10,21,14,16,12.00
2016,10,21,14,17,12.10
2016,10,21,14,18,12.10
2016,10,21,14,19,12.10
2016,10,21,14,21,12.20
2016,10,21,14,22,12.20
2016,10,21,14,23,12.20
2016,10,21,14,24,12.10
2016,10,21,14,26,12.00
2016,10,21,14,27,11.90
2016,10,21,14,28,11.90
2016,10,21,14,29,11.90
2016,10,21,14,31,11.80
2016,10,21,14,32,11.80
2016,10,21,14,33,11.80
2016,10,21,14,34,11.80
2016,10,21,14,36,11.80
2016,10,21,14,37,11.80
2016,10,21,14,38,11.80
2016,10,21,14,39,11.80
2016,10,21,14,41,11.80
2016,10,21,14,42,11.80
2016,10,21,14,43,11.80
2016,10,21,14,44,11.80
2016,10,21,14,45,11.80
2016,10,21,14,46,11.80
2016,10,21,14,47,11.80
2016,10,21,14,48,11.80
2016,10,21,14,49,11.80
2016,10,21,14,51,11.80
2016,10,21,14,52,11.80
2016,10,21,14,53,11.80
2016,10,21,14,54,11.70
2016,10,21,14,55,11.70
2016,10,21,14,56,11.70
2016,10,21,14,57,11.70
2016,10,21,14,58,11.70
2016,10,21,14,59,11.60
2016,10,21,15,00,11.60
2016,10,21,15,01,11.60
2016,10,21,15,02,11.60
2016,10,21,15,03,11.60
2016,10,21,15,04,11.60
2016,10,21,15,06,11.60
2016,10,21,15,07,11.60
2016,10,21,15,08,11.60
2016,10,21,15,09,11.60
2016,10,21,15,10,11.60
2016,10,21,15,11,11.60
2016,10,21,15,12,11.60
2016,10,21,15,13,11.60
2016,10,21,15,14,11.60
2016,10,21,15,15,11.60
2016,10,21,15,16,11.60
2016,10,21,15,17,11.60
2016,10,21,15,18,11.60
2016,10,21,15,19,11.60
2016,10,21,15,20,11.60
2016,10,21,15,21,11.60
2016,10,21,15,22,11.60
2016,10,21,15,23,11.60
2016,10,21,15,24,11.60
2016,10,21,15,25,11.60
2016,10,21,15,26,11.60
2016,10,21,15,27,11.60
2016,10,21,15,28,11.60
2016,10,21,15,29,11.60
2016,10,21,15,30,11.70
2016,10,21,15,31,11.70
2016,10,21,15,32,11.70
2016,10,21,15,33,11.70
2016,10,21,15,34,11.70
2016,10,21,15,35,11.60
2016,10,21,15,36,11.60
2016,10,21,15,37,11.60
2016,10,21,15,38,11.60
2016,10,21,15,39,11.60
2016,10,21,15,40,11.60
2016,10,21,15,41,11.60
2016,10,21,15,42,11.60
2016,10,21,15,43,11.70
2016,10,21,15,45,11.70
2016,10,21,15,46,11.70
2016,10,21,15,47,11.70
2016,10,21,15,48,11.60
2016,10,21,15,49,11.60
2016,10,21,15,50,11.60
2016,10,21,15,51,11.60
2016,10,21,15,52,11.60
2016,10,21,15,53,11.60
2016,10,21,15,54,11.60
2016,10,21,15,55,11.60
2016,10,21,15,56,11.60
2016,10,21,15,57,11.40
2016,10,21,15,58,11.40
2016,10,21,15,59,11.40
2016,10,21,16,00,11.40
2016,10,21,16,01,11.40
2016,10,21,16,02,11.40
2016,10,21,16,04,11.40
2016,10,21,16,06,11.40
2016,10,21,16,07,11.40
2016,10,21,16,08,11.40
2016,10,21,16,09,11.40
2016,10,21,16,11,11.40
2016,10,21,16,12,11.40
2016,10,21,16,13,11.40
2016,10,21,16,14,11.40
2016,10,21,16,16,11.40
2016,10,21,16,17,11.40
2016,10,21,16,18,11.40
2016,10,21,16,19,11.40
2016,10,21,16,21,11.40
2016,10,21,16,22,11.40
2016,10,21,16,23,11.40
2016,10,21,16,24,11.40
2016,10,21,16,26,11.40
2016,10,21,16,27,11.40
2016,10,21,16,28,11.40
2016,10,21,16,29,11.40
2016,10,21,16,31,11.40
2016,10,21,16,32,11.40
2016,10,21,16,33,11.40
2016,10,21,16,34,11.40
2016,10,21,16,36,11.40
2016,10,21,16,37,11.40
2016,10,21,16,38,11.40
2016,10,21,16,39,11.30
2016,10,21,16,41,11.30
2016,10,21,16,42,11.30
2016,10,21,16,43,11.30
2016,10,21,16,44,11.30
2016,10,21,16,46,11.30
2016,10,21,16,47,11.20
2016,10,21,16,48,11.20
2016,10,21,16,49,11.20
2016,10,21,16,51,11.20
2016,10,21,16,52,11.20
2016,10,21,16,53,11.20
2016,10,21,16,54,11.20
2016,10,21,16,56,11.20
2016,10,21,16,57,11.20
2016,10,21,16,58,11.20
2016,10,21,16,59,11.20
2016,10,21,17,01,11.20
2016,10,21,17,02,11.20
2016,10,21,17,03,11.20
2016,10,21,17,04,11.20
2016,10,21,17,06,11.20
2016,10,21,17,07,11.20
2016,10,21,17,08,11.20
2016,10,21,17,09,11.20
2016,10,21,17,11,11.20
2016,10,21,17,12,11.20
2016,10,21,17,13,11.20
2016,10,21,17,14,11.20
2016,10,21,17,16,11.20
2016,10,21,17,17,11.20
2016,10,21,17,18,11.20
2016,10,21,17,19,11.20
2016,10,21,17,20,11.20
2016,10,21,17,21,11.20
2016,10,21,17,22,11.20
2016,10,21,17,23,11.20
2016,10,21,17,24,11.20
2016,10,21,17,25,11.20
2016,10,21,17,26,11.20
2016,10,21,17,27,11.20
2016,10,21,17,28,11.20
2016,10,21,17,29,11.20
2016,10,21,17,30,11.10
2016,10,21,17,31,11.10
2016,10,21,17,32,11.10
2016,10,21,17,33,11.10
2016,10,21,17,34,11.10
2016,10,21,17,36,11.10
2016,10,21,17,37,11.10
2016,10,21,17,38,11.10
2016,10,21,17,39,11.10
2016,10,21,17,40,11.10
2016,10,21,17,41,11.10
2016,10,21,17,42,11.10
2016,10,21,17,43,10.90
2016,10,21,17,44,10.90
2016,10,21,17,45,10.90
2016,10,21,17,46,10.90
2016,10,21,17,47,10.90
2016,10,21,17,48,10.90
2016,10,21,17,49,10.90
2016,10,21,17,50,10.90
2016,10,21,17,51,10.90
2016,10,21,17,52,10.90
2016,10,21,17,53,10.90
2016,10,21,17,54,10.90
2016,10,21,17,56,10.90
2016,10,21,17,57,10.90
2016,10,21,17,58,10.90
2016,10,21,17,59,10.90
2016,10,21,18,00,10.90
2016,10,21,18,01,10.90
2016,10,21,18,02,10.90
2016,10,21,18,03,10.90
2016,10,21,18,04,10.90
2016,10,21,18,05,10.90
2016,10,21,18,06,10.90
2016,10,21,18,07,10.90
2016,10,21,18,08,10.90
2016,10,21,18,09,10.90
2016,10,21,18,10,10.90
2016,10,21,18,11,10.90
2016,10,21,18,12,10.90
2016,10,21,18,13,10.90
2016,10,21,18,14,10.90
2016,10,21,18,15,10.90
2016,10,21,18,16,10.90
2016,10,21,18,17,10.90
2016,10,21,18,18,10.90
2016,10,21,18,19,10.90
2016,10,21,18,20,10.90
2016,10,21,18,21,10.90
2016,10,21,18,22,10.90
2016,10,21,18,23,10.80
2016,10,21,18,24,10.80
2016,10,21,18,26,10.80
2016,10,21,18,27,10.80
2016,10,21,18,28,10.70
2016,10,21,18,29,10.70
2016,10,21,18,30,10.70
2016,10,21,18,31,10.70
2016,10,21,18,32,10.70
2016,10,21,18,33,10.60
2016,10,21,18,34,10.60
2016,10,21,18,35,10.60
2016,10,21,18,36,10.60
2016,10,21,18,37,10.60
2016,10,21,18,38,10.60
2016,10,21,18,39,10.60
2016,10,21,18,40,10.60
2016,10,21,18,41,10.60
2016,10,21,18,42,10.60
2016,10,21,18,43,10.60
2016,10,21,18,44,10.60
2016,10,21,18,45,10.60
2016,10,21,18,47,10.60
2016,10,21,18,48,10.60
2016,10,21,18,49,10.60
2016,10,21,18,51,10.60
2016,10,21,18,52,10.60
2016,10,21,18,53,10.60
2016,10,21,18,54,10.60
2016,10,21,18,56,10.60
2016,10,21,18,57,10.60
2016,10,21,18,58,10.60
2016,10,21,18,59,10.60
2016,10,21,19,01,10.60
2016,10,21,19,02,10.60
2016,10,21,19,03,10.60
2016,10,21,19,04,10.60
2016,10,21,19,06,10.60
2016,10,21,19,07,10.60
2016,10,21,19,08,10.60
2016,10,21,19,09,10.60
2016,10,21,19,11,10.60
2016,10,21,19,12,10.60
2016,10,21,19,13,10.60
2016,10,21,19,14,10.60
2016,10,21,19,16,10.60
2016,10,21,19,17,10.60
2016,10,21,19,18,10.60
2016,10,21,19,19,10.60
2016,10,21,19,21,10.60
2016,10,21,19,22,10.60
2016,10,21,19,23,10.60
2016,10,21,19,24,10.60
2016,10,21,19,26,10.60
2016,10,21,19,27,10.60
2016,10,21,19,28,10.60
2016,10,21,19,29,10.60
2016,10,21,19,31,10.60
2016,10,21,19,32,10.60
2016,10,21,19,33,10.60
2016,10,21,19,34,10.60
2016,10,21,19,36,10.60
2016,10,21,19,37,10.40
2016,10,21,19,38,10.40
2016,10,21,19,39,10.40
2016,10,21,19,41,10.40
2016,10,21,19,42,10.40
2016,10,21,19,43,10.40
2016,10,21,19,44,10.40
2016,10,21,19,46,10.40
2016,10,21,19,47,10.40
2016,10,21,19,48,10.40
2016,10,21,19,49,10.40
2016,10,21,19,51,10.40
2016,10,21,19,52,10.40
2016,10,21,19,53,10.40
2016,10,21,19,54,10.40
2016,10,21,19,56,10.40
2016,10,21,19,57,10.40
2016,10,21,19,58,10.40
2016,10,21,19,59,10.40
2016,10,21,20,01,10.40
2016,10,21,20,02,10.40
2016,10,21,20,03,10.40
2016,10,21,20,04,10.40
2016,10,21,20,06,10.40
2016,10,21,20,07,10.40
2016,10,21,20,08,10.40
2016,10,21,20,09,10.40
2016,10,21,20,10,10.40
2016,10,21,20,11,10.40
2016,10,21,20,12,10.40
2016,10,21,20,13,10.40
2016,10,21,20,14,10.40
2016,10,21,20,15,10.40
2016,10,21,20,16,10.40
2016,10,21,20,17,10.40
2016,10,21,20,18,10.40
2016,10,21,20,19,10.40